Location: Laterina
(43.5167°N, 11.7167°E)
Time: 16:24:46
(UTC+00:00)

Nadezhda 4 Rocket - Pass Details

Date: 24 September 2020
Orbit: 949 x 993 km, 82.9° (Epoch: 25 October)

Event Time Altitude Azimuth Distance (km) Brightness Sun altitude
Rises 17:45:29 0° 357° (N) 3,633 7.1 -7.9°
Reaches altitude 10° 17:48:07 10° 4° (N) 2,683 6.4 -8.4°
Maximum altitude 17:53:56 44° 76° (ENE) 1,301 4.3 -9.5°
Drops below altitude 10° 17:59:44 10° 147° (SSE) 2,676 5.9 -10.5°
Sets 18:02:21 0° 154° (SSE) 3,622 6.6 -11.0°
